Location: ?????????
(38.5999°N, 22.7695°E)
Time: 11:15:30
(UTC+00:00)

Resurs 1-4 Rocket - Pass Details

Date: 23 May 2024
Orbit: 798 x 813 km, 98.7° (Epoch: 23 June)

Event Time Altitude Azimuth Distance (km) Brightness Sun altitude
Rises 00:27:22 0° 12° (NNE) 3,313 6.5 -24.3°
Reaches altitude 10° 00:29:42 10° 13° (NNE) 2,378 5.5 -24.0°
Maximum altitude 00:34:58 87° 287° (WNW) 805 2.0 -23.5°
Enters shadow 00:36:02 58° 200° (SSW) 924 2.0 -23.3°
